FW9465 Weather Reports


time (UTC)temp
C
wind
direction
speed
KPH
gust
KPH
rain 1hr
cm
rain 24hr
cm
rain mn
cm
humidity
%
barometer
mb
20260906224740 37 104 9.7 14.5 0.00 0.00 0.00 36 1010.6
20260906223738 36 139 6.4 12.9 0.00 0.00 0.00 37 1010.7
20260906221725 36 70 4.8 9.7 0.00 0.00 0.00 38 1010.8
20260906220739 36 131 6.4 16.1 0.00 0.00 0.00 37 1011.0
20260906214722 35 153 12.9 19.3 0.00 0.00 0.00 40 1011.0
20260906211923 36 66 11.3 19.3 0.00 0.00 0.00 39 1011.3
20260906205941 35 105 8.0 17.7 0.00 0.00 0.00 41 1011.7
20260906204923 35 66 11.3 14.5 0.00 0.00 0.00 40 1011.7
20260906203924 35 75 4.8 9.7 0.00 0.00 0.00 40 1011.9
20260906202941 36 91 11.3 16.1 0.00 0.00 0.00 40 1011.9
20260906201122 36 91 11.3 14.5 0.00 0.00 0.00 40 1012.3
20260906200142 36 153 11.3 16.1 0.00 0.00 0.00 40 1012.2
20260906195223 36 93 8.0 12.9 0.00 0.00 0.00 41 1012.4
20260906193225 36 101 6.4 9.7 0.00 0.00 0.00 43 1012.4
20260906191323 35 84 6.4 12.9 0.00 0.00 0.00 45 1012.8
20260906184423 34 112 4.8 14.5 0.00 0.00 0.00 45 1013.1
20260906183424 34 109 14.5 22.5 0.00 0.00 0.00 44 1013.2
20260906182523 34 82 6.4 8.0 0.00 0.00 0.00 45 1013.3
20260906181523 34 100 6.4 11.3 0.00 0.00 0.00 44 1013.4
20260906180622 34 93 9.7 11.3 0.00 0.00 0.00 46 1013.6
20260906175625 34 124 9.7 16.1 0.00 0.00 0.00 47 1013.8
20260906174723 33 90 1.6 3.2 0.00 0.00 0.00 47 1013.9
20260906173729 33 69 14.5 17.7 0.00 0.00 0.00 48 1013.9
20260906172723 33 58 8.0 12.9 0.00 0.00 0.00 48 1014.1
20260906171724 33 142 6.4 14.5 0.00 0.00 0.00 47 1014.4
20260906170741 33 104 4.8 9.7 0.00 0.00 0.00 49 1014.6
20260906165723 34 142 12.9 17.7 0.00 0.00 0.00 47 1014.7
20260906164724 34 104 4.8 8.0 0.00 0.00 0.00 49 1014.6
20260906163724 33 40 4.8 6.4 0.00 0.00 0.00 50 1014.7
20260906162739 32 101 0.0 4.8 0.00 0.00 0.00 53 1014.6
20260906161822 32 83 8.0 11.3 0.00 0.00 0.00 55 1014.6
20260906160825 32 91 6.4 11.3 0.00 0.00 0.00 56 1014.7
20260906155823 32 68 8.0 12.9 0.00 0.00 0.00 57 1014.7
20260906154840 32 65 6.4 11.3 0.00 0.00 0.00 55 1014.6
20260906153823 32 16 6.4 9.7 0.00 0.00 0.00 56 1014.6
20260906152823 32 139 1.6 8.0 0.00 0.00 0.00 57 1014.6
20260906151825 31 90 0.0 1.6 0.00 0.00 0.00 59 1014.6
20260906150823 31 107 4.8 8.0 0.00 0.00 0.00 61 1014.5
20260906145824 30 90 1.6 4.8 0.00 0.00 0.00 63 1014.5
20260906144824 30 48 1.6 4.8 0.00 0.00 0.00 65 1014.3
20260906143922 30 44 6.4 8.0 0.00 0.00 0.00 64 1014.4
20260906142939 29 112 1.6 4.8 0.00 0.00 0.00 66 1014.4
20260906141924 29 82 4.8 6.4 0.00 0.00 0.00 67 1014.5
20260906140923 29 112 1.6 3.2 0.00 0.00 0.00 68 1014.5
20260906134924 27 104 0.0 0.0 0.00 0.00 0.00 72 1014.2
20260906132924 26 45 3.2 4.8 0.00 0.00 0.00 76 1014.1
20260906131924 26 67 3.2 3.2 0.00 0.00 0.00 76 1014.2
20260906130923 26 67 0.0 0.0 0.00 0.00 0.00 80 1014.2
20260906124939 24 135 0.0 0.0 0.00 0.00 0.00 85 1014.2
20260906123024 23 135 0.0 0.0 0.00 0.00 0.00 86 1014.0
20260906121022 23 135 0.0 0.0 0.00 0.00 0.00 85 1013.9
20260906120025 23 135 0.0 0.0 0.00 0.00 0.00 85 1013.7
20260906115024 23 135 0.0 0.0 0.00 0.00 0.00 84 1013.6
20260906113123 23 135 0.0 0.0 0.00 0.00 0.00 85 1013.4
20260906112122 23 112 1.6 3.2 0.00 0.00 0.00 85 1013.3
20260906111124 23 67 0.0 0.0 0.00 0.00 0.00 84 1013.4
20260906110221 23 67 0.0 0.0 0.00 0.00 0.00 84 1013.3
20260906104222 24 315 0.0 0.0 0.00 0.00 0.00 83 1013.1
20260906103222 24 157 0.0 0.0 0.00 0.00 0.00 83 1013.0
20260906102222 24 157 0.0 0.0 0.00 0.00 0.00 83 1013.1
20260906101223 24 157 0.0 0.0 0.00 0.00 0.00 81 1013.1
20260906095322 25 157 0.0 0.0 0.00 0.00 0.00 80 1012.8
20260906093323 25 157 0.0 0.0 0.00 0.00 0.00 81 1012.5
20260906092323 25 157 4.8 6.4 0.00 0.00 0.00 81 1012.4
20260906091322 25 119 1.6 3.2 0.00 0.00 0.00 81 1012.5
20260906090322 25 135 0.0 1.6 0.00 0.00 0.00 80 1012.3
20260906085323 25 157 3.2 4.8 0.00 0.00 0.00 81 1012.3
20260906084341 25 157 3.2 6.4 0.00 0.00 0.00 80 1012.2
20260906083323 25 180 1.6 4.8 0.00 0.00 0.00 80 1012.2
20260906082323 25 202 3.2 6.4 0.00 0.00 0.00 79 1012.3
20260906081325 25 180 0.0 1.6 0.00 0.00 0.00 79 1012.6
20260906074422 26 180 0.0 0.0 0.00 0.00 0.00 77 1012.9
20260906073437 26 180 0.0 1.6 0.00 0.00 0.00 76 1012.8
20260906072442 26 202 3.2 6.4 0.00 0.00 0.00 76 1012.7
20260906071421 26 157 3.2 6.4 0.00 0.00 0.00 75 1012.6
20260906070437 26 157 3.2 8.0 0.00 0.00 0.00 76 1012.7
20260906065523 26 157 6.4 9.7 0.00 0.00 0.00 75 1012.6
20260906064539 26 164 4.8 8.0 0.00 0.00 0.00 74 1012.8
20260906063621 27 158 6.4 9.7 0.00 0.00 0.00 74 1012.9
20260906062622 27 159 3.2 8.0 0.00 0.00 0.00 73 1012.9
20260906061637 27 161 4.8 9.7 0.00 0.00 0.00 72 1013.0
20260906060621 27 161 4.8 8.0 0.00 0.00 0.00 72 1013.0
20260906054637 27 157 0.0 3.2 0.00 0.00 0.00 70 1013.0
20260906053623 27 170 1.6 4.8 0.00 0.00 0.00 70 1013.0
20260906052622 27 157 1.6 3.2 0.00 0.00 0.00 69 1013.1
20260906051623 28 157 1.6 3.2 0.00 0.00 0.00 69 1013.1
20260906050721 28 157 0.0 3.2 0.00 0.00 0.00 68 1013.0
20260906044726 28 157 4.8 6.4 0.00 0.00 0.00 67 1012.9
20260906043725 28 157 1.6 8.0 0.00 0.00 0.00 66 1012.8
20260906042741 29 159 6.4 9.7 0.00 0.00 0.00 67 1012.8
20260906041729 29 155 9.7 14.5 0.00 0.00 0.00 67 1012.8
20260906040725 29 156 8.0 11.3 0.00 0.00 0.00 65 1012.7
20260906034726 30 148 9.7 12.9 0.00 0.00 0.00 65 1012.7
20260906032726 30 150 11.3 14.5 0.00 0.00 0.00 63 1012.8
20260906031825 30 142 8.0 11.3 0.00 0.00 0.00 62 1012.9
20260906030824 30 140 6.4 8.0 0.00 0.00 0.00 61 1012.9
20260906025843 31 150 9.7 12.9 0.00 0.00 0.00 59 1012.7
20260906024924 31 147 12.9 14.5 0.00 0.00 0.00 58 1012.5
20260906023928 31 152 12.9 16.1 0.00 0.00 0.00 56 1012.4
20260906022926 31 142 4.8 9.7 0.00 0.00 0.00 55 1012.2
20260906021946 31 146 11.3 14.5 0.00 0.00 0.00 53 1012.1
20260906020946 32 137 9.7 17.7 0.00 0.00 0.00 51 1012.0
20260906015947 32 144 11.3 16.1 0.00 0.00 0.00 49 1011.9
20260906015046 33 130 6.4 11.3 0.00 0.00 0.00 47 1011.6
20260906014146 33 155 8.0 12.9 0.00 0.00 0.00 47 1011.3
20260906012148 33 131 8.0 16.1 0.00 0.00 0.00 45 1011.1
20260906011203 34 142 8.0 11.3 0.00 0.00 0.00 42 1011.0
20260906010246 35 142 8.0 12.9 0.00 0.00 0.00 40 1010.7
20260906005344 35 134 3.2 8.0 0.00 0.00 0.00 41 1010.9
20260906004347 35 133 4.8 11.3 0.00 0.00 0.00 39 1010.8
20260906003445 36 108 1.6 3.2 0.00 0.00 0.00 39 1010.8
20260906002447 35 121 1.6 6.4 0.00 0.00 0.00 38 1010.8
20260906000501 36 101 11.3 16.1 0.00 0.00 0.00 38 1010.6
20260905235447 36 101 8.0 16.1 0.00 0.00 0.00 38 1010.7
20260905234445 36 91 4.8 9.7 0.00 0.00 0.00 38 1010.6
20260905232447 36 95 6.4 11.3 0.00 0.00 0.00 36 1010.6
20260905231545 37 107 8.0 12.9 0.00 0.00 0.00 37 1010.5
20260905230600 37 93 9.7 14.5 0.00 0.00 0.00 36 1010.5
20260905225647 37 22 6.4 9.7 0.00 0.00 0.00 36 1010.5